[[{"header":{"parameterUnit":"m.s-1","parameterCategory":1,"la1":30.2991,"la2":30.254,"lo1":-89.0895,"lo2":-89.0444,"dy":0.0017,"dx":0.0017,"nx":28,"ny":28,"refTime":"2025-02-04T09:00:00:Z","depth":0,"parameterNumber":2,"parameterNumberName":"U-component_of_WINDS"},"data":[0,0,0,0,0,0,0,0,0,0,0,0,0,0,0,0,0,0,0,0,0,0,0,0,0,0,0,0,0,0,0,0,0,0,0,0,0,0,0,0,0,0,0,0,0,0,0,0,0,0,0,0,0,0,0,0,0,0,-0.9018,-0.9018,0,-0.9016,-0.9016,-0.9016,-0.8992,-0.8991,-0.899,-0.899,-0.8988,-0.8989,-0.8989,0,0,0,0,0,0,0,0,0,0,0,0,0,-0.9001,-0.9001,-0.9018,-0.9018,-0.9017,-0.9016,-0.9016,-0.9016,-0.8992,-0.8991,-0.899,-0.899,-0.8988,-0.8989,-0.8989,0,0,0,0,0,0,0,0,0,0,0,0,0,-0.9005,-0.9001,-0.9018,-0.9005,-0.9004,-0.9016,-0.9016,-0.9016,-0.8992,-0.8991,-0.899,-0.8989,-0.8988,-0.8989,-0.8989,-0.9013,0,0,-0.8992,-0.8992,0,0,0,0,0,0,0,0,-0.9004,-0.9005,-0.9007,-0.9006,-0.9005,-0.9003,-0.9009,-0.9015,-0.8992,-0.8997,-0.899,-0.8989,-0.8994,-0.8994,-0.8996,-0.9013,-0.9013,-0.8992,-0.8992,-0.8993,-0.8993,0,0,0,0,0,0,0,-0.9004,-0.9005,-0.9017,-0.9007,-0.9006,-0.9,-0.9,-0.901,-0.9,-0.8996,-0.8994,-0.8994,-0.8993,-0.8995,-0.8996,-0.9012,-0.8992,-0.8993,-0.8993,-0.8993,-0.9048,-0.9049,0,0,0,0,0,0,-0.9005,-0.9005,-0.9017,-0.9017,-0.9002,-0.9001,-0.9001,-0.9005,-0.9,-0.8999,-0.8995,-0.8993,-0.8994,-0.8995,-0.8996,-0.9022,-0.8993,-0.8994,-0.8994,-0.9047,-0.9048,-0.9049,0,0,0,0,0,0,-0.9005,-0.9007,-0.9017,-0.901,-0.9011,-0.9002,-0.9007,-0.9005,-0.9007,-0.9,-0.8998,-0.8999,-0.8994,-0.8994,-0.9008,-0.9021,-0.8994,-0.8995,-0.9046,-0.9047,-0.9049,-0.9075,0,0,0,0,0,0,-0.9005,-0.9007,-0.9015,-0.9011,-0.9012,-0.903,-0.9008,-0.9006,-0.9008,-0.9006,-0.9003,-0.9001,-0.8993,-0.9007,-0.9009,-0.9022,-0.8995,-0.9045,-0.9047,-0.9048,-0.9073,-0.9077,-0.9081,0,0,0,0,0,-0.9004,-0.9023,-0.9016,-0.9017,-0.9022,-0.9031,-0.9031,-0.9021,-0.9009,-0.9018,-0.9013,-0.9001,-0.902,-0.9009,-0.9011,-0.9024,-0.9044,-0.9046,-0.9048,-0.9071,-0.9076,-0.9081,0,0,0,0,0,0,-0.9029,-0.9022,-0.9014,-0.9032,-0.9032,-0.9027,-0.9037,-0.9027,-0.9031,-0.9028,-0.9016,-0.9015,-0.9031,-0.9029,-0.9017,-0.9046,-0.903,-0.9033,-0.9047,-0.9052,-0.9056,-0.9055,-0.8996,0,0,0,0,0,-0.9037,-0.9044,-0.9037,-0.9054,-0.9054,-0.9046,-0.9049,-0.9041,-0.9041,-0.9041,-0.9037,-0.9038,-0.9044,-0.9048,-0.9053,-0.9073,-0.9072,-0.9083,-0.9087,-0.9091,-0.9093,-0.9103,-0.9108,-0.9057,-0.9057,-0.9057,0,0,-0.9052,-0.9049,-0.9054,-0.9059,-0.9058,-0.9066,-0.9046,-0.9055,-0.9061,-0.9042,-0.9055,-0.9053,-0.9052,-0.907,-0.9077,-0.9069,-0.9107,-0.9093,-0.9096,-0.9096,-0.9106,-0.911,-0.9115,-0.9058,-0.9058,-0.9058,0,0,-0.9084,-0.9083,-0.9096,-0.9096,-0.9095,-0.9089,-0.9093,-0.9089,-0.9086,-0.9099,-0.9086,-0.9093,-0.9103,-0.9103,-0.9105,-0.9138,-0.9127,-0.914,-0.916,-0.917,-0.9174,-0.9178,-0.9189,-0.9193,-0.9143,-0.9143,-0.9143,0,-0.9103,-0.9114,-0.9104,-0.9114,-0.9116,-0.91,-0.9114,-0.9114,-0.9115,-0.9117,-0.9108,-0.9121,-0.9119,-0.9136,-0.9144,-0.9146,-0.9149,-0.914,-0.9175,-0.9178,-0.9181,-0.9192,-0.9196,-0.9144,-0.9144,-0.9144,-0.9144,0,-0.9138,-0.9146,-0.9157,-0.9158,-0.9161,-0.9173,-0.9165,-0.917,-0.9162,-0.9158,-0.9171,-0.9169,-0.9173,-0.9177,-0.917,-0.9193,-0.9188,-0.9177,-0.916,-0.9188,-0.9197,-0.9201,-0.9146,-0.9146,-0.9145,-0.9145,0,0,-0.9184,-0.918,-0.9184,-0.9184,-0.9183,-0.9189,-0.92,-0.9204,-0.9208,-0.921,-0.9219,-0.9229,-0.9219,-0.922,-0.9213,-0.9222,-0.9248,-0.921,-0.921,-0.9217,-0.9273,-0.928,-0.9285,-0.9241,-0.9242,-0.9243,-0.9273,0,-0.9214,-0.9232,-0.9224,-0.9243,-0.925,-0.9236,-0.9246,-0.9246,-0.9242,-0.9248,-0.9244,-0.9251,-0.9238,-0.9239,-0.9247,-0.9243,-0.9259,-0.9241,-0.9249,-0.9249,-0.9248,-0.929,-0.9298,-0.9326,-0.9276,-0.9277,-0.9278,0,-0.9251,-0.9254,-0.9274,-0.9271,-0.9274,-0.9283,-0.9286,-0.9292,-0.9292,-0.9289,-0.9291,-0.9282,-0.9293,-0.9278,-0.9292,-0.928,-0.9283,-0.9282,-0.9283,-0.9282,-0.9264,-0.929,-0.9335,-0.9339,-0.9283,-0.9283,-0.9283,0,-0.9281,-0.9291,-0.9304,-0.9305,-0.9302,-0.9309,-0.9308,-0.9307,-0.931,-0.9314,-0.9315,-0.932,-0.9322,-0.9326,-0.9319,-0.9308,-0.9334,-0.9318,-0.9332,-0.9332,-0.9337,-0.9336,-0.9382,-0.9341,-0.9341,-0.9341,-0.9341,0,-0.9315,-0.9328,-0.9317,-0.9325,-0.9339,-0.933,-0.9344,-0.9342,-0.9341,-0.9349,-0.9337,-0.9344,-0.9335,-0.9341,-0.9335,-0.9348,-0.935,-0.9347,-0.9345,-0.9347,-0.9347,-0.9348,-0.9345,-0.9342,-0.9341,-0.9341,-0.9341,0,-0.9351,-0.9344,-0.9358,-0.9354,-0.9354,-0.9364,-0.9361,-0.9369,-0.9365,-0.9374,-0.9376,-0.937,-0.9377,-0.937,-0.9377,-0.9373,-0.939,-0.9386,-0.9389,-0.9388,-0.9401,-0.94,-0.9448,-0.9454,-0.941,-0.9411,-0.9411,0,-0.9372,-0.9381,-0.9379,-0.9383,-0.9383,-0.939,-0.9393,-0.9385,-0.9388,-0.939,-0.9397,-0.9403,-0.9407,-0.9419,-0.9415,-0.942,-0.9415,-0.9432,-0.9416,-0.9418,-0.9414,-0.9413,-0.9414,-0.9435,-0.9435,-0.9436,-0.9436,0,-0.941,-0.9407,-0.9411,-0.9416,-0.942,-0.9423,-0.9425,-0.9429,-0.942,-0.9425,-0.9432,-0.9435,-0.9442,-0.9448,-0.9452,-0.9452,-0.9442,-0.9441,-0.9445,-0.9446,-0.9448,-0.9446,-0.9397,-0.944,-0.944,-0.9439,-0.9439,-0.9439,-0.9438,-0.9446,-0.9445,-0.9451,-0.9452,-0.9454,-0.9461,-0.9458,-0.9464,-0.9468,-0.9464,-0.9472,-0.9472,-0.9477,-0.9477,-0.9484,-0.9477,-0.9482,-0.9483,-0.9484,-0.9485,-0.9448,-0.9485,-0.9485,-0.9484,-0.9484,-0.9484,0,-0.9475,-0.9474,-0.948,-0.9483,-0.9488,-0.9479,-0.9481,-0.9486,-0.9493,-0.9495,-0.9499,-0.9507,-0.9513,-0.951,-0.9515,-0.9521,-0.9517,-0.9523,-0.9521,-0.9521,-0.9492,-0.9488,-0.9526,-0.9526,-0.9526,-0.9526,-0.9526,-0.9526,-0.9494,-0.9506,-0.9503,-0.9516,-0.9515,-0.9523,-0.9525,-0.9527,-0.9528,-0.9537,-0.9542,-0.954,-0.954,-0.9545,-0.955,-0.9549,-0.9551,-0.9558,-0.9555,-0.9528,-0.9523,-0.9519,-0.9516,-0.9559,-0.9559,-0.9584,-0.9585,-0.9585]},{"header":{"parameterUnit":"m.s-1","parameterCategory":1,"la1":30.2991,"la2":30.254,"lo1":-89.0895,"lo2":-89.0444,"dy":0.0017,"dx":0.0017,"nx":28,"ny":28,"refTime":"2025-02-04T09:00:00:Z","depth":0,"parameterNumber":3,"parameterNumberName":"V-component_of_WINDS"},"data":[0,0,0,0,0,0,0,0,0,0,0,0,0,0,0,0,0,0,0,0,0,0,0,0,0,0,0,0,0,0,0,0,0,0,0,0,0,0,0,0,0,0,0,0,0,0,0,0,0,0,0,0,0,0,0,0,0,0,0.9531,0.9531,0,0.9522,0.9522,0.9522,0.9532,0.9532,0.9533,0.9533,0.9522,0.9521,0.9521,0,0,0,0,0,0,0,0,0,0,0,0,0,0.9556,0.9555,0.9531,0.9531,0.953,0.9522,0.9522,0.9521,0.9532,0.9532,0.9533,0.9533,0.9522,0.9521,0.9521,0,0,0,0,0,0,0,0,0,0,0,0,0,0.9546,0.9555,0.9531,0.9535,0.9535,0.9522,0.9522,0.9521,0.9532,0.9532,0.9533,0.9534,0.9522,0.9521,0.952,0.9502,0,0,0.9517,0.9517,0,0,0,0,0,0,0,0,0.9546,0.9545,0.9534,0.9534,0.9535,0.9529,0.9526,0.9515,0.9532,0.9533,0.9533,0.9534,0.9524,0.9522,0.9519,0.9502,0.9501,0.9517,0.9517,0.9516,0.9516,0,0,0,0,0,0,0,0.9547,0.9545,0.9527,0.9534,0.9534,0.9537,0.9536,0.9524,0.9525,0.9533,0.9534,0.9533,0.9524,0.952,0.9519,0.9501,0.9517,0.9516,0.9516,0.9515,0.947,0.9469,0,0,0,0,0,0,0.9547,0.9546,0.9527,0.9527,0.9542,0.9536,0.9535,0.953,0.9525,0.9525,0.9532,0.9533,0.9522,0.952,0.9519,0.9498,0.9516,0.9515,0.9515,0.947,0.947,0.9469,0,0,0,0,0,0,0.9548,0.9546,0.9528,0.9536,0.9534,0.9535,0.9529,0.9529,0.9526,0.9525,0.9525,0.9529,0.9522,0.952,0.9507,0.9498,0.9515,0.9514,0.9471,0.947,0.9469,0.9456,0,0,0,0,0,0,0.9549,0.9546,0.9539,0.9536,0.9534,0.9516,0.9529,0.9529,0.9525,0.9526,0.9521,0.9521,0.9523,0.9508,0.9506,0.9497,0.9513,0.9472,0.9471,0.947,0.9458,0.9455,0.9453,0,0,0,0,0,0.9549,0.9535,0.9539,0.9536,0.9525,0.9515,0.9514,0.9517,0.9524,0.9517,0.9516,0.9521,0.9499,0.9507,0.9504,0.9495,0.9472,0.9471,0.947,0.9459,0.9456,0.9453,0,0,0,0,0,0,0.9535,0.9535,0.9539,0.9523,0.9519,0.9517,0.9509,0.9513,0.9507,0.9508,0.9511,0.951,0.9496,0.9494,0.9502,0.9478,0.9487,0.9485,0.948,0.9477,0.9475,0.9475,0.9512,0,0,0,0,0,0.9531,0.9523,0.9523,0.9509,0.9507,0.9508,0.9504,0.9506,0.9503,0.9501,0.9499,0.9495,0.9487,0.9482,0.9474,0.9458,0.9457,0.945,0.9448,0.9446,0.9444,0.9436,0.9433,0.9464,0.9464,0.9464,0,0,0.952,0.9519,0.9514,0.9506,0.9504,0.9496,0.9507,0.9497,0.9491,0.9499,0.9487,0.9485,0.9481,0.9466,0.9459,0.9464,0.9436,0.9444,0.9443,0.9442,0.9434,0.9431,0.9429,0.9463,0.9464,0.9464,0,0,0.9498,0.9496,0.9485,0.9483,0.9479,0.948,0.9478,0.9475,0.9475,0.9463,0.9469,0.9462,0.9448,0.9445,0.9442,0.942,0.9425,0.9417,0.9406,0.9398,0.9395,0.9393,0.9386,0.9383,0.9416,0.9416,0.9416,0,0.9485,0.9474,0.9478,0.9469,0.9466,0.9474,0.9463,0.946,0.9454,0.9451,0.9457,0.9441,0.9438,0.9424,0.9419,0.9415,0.9413,0.9418,0.9395,0.9393,0.9391,0.9385,0.9382,0.9415,0.9415,0.9415,0.9415,0,0.9459,0.9451,0.9443,0.9438,0.9434,0.9424,0.9426,0.9422,0.9425,0.9426,0.9414,0.9411,0.9404,0.9401,0.9403,0.9386,0.939,0.9395,0.9404,0.9388,0.9381,0.9379,0.9414,0.9414,0.9414,0.9414,0,0,0.9427,0.9426,0.9423,0.9421,0.9419,0.9413,0.9403,0.9397,0.9394,0.9389,0.9382,0.9371,0.9377,0.9373,0.9375,0.9369,0.9353,0.9375,0.9375,0.9372,0.9335,0.9331,0.9328,0.9356,0.9355,0.9355,0.9336,0,0.9405,0.9389,0.9394,0.9378,0.9371,0.9379,0.9371,0.9369,0.9369,0.9363,0.9364,0.9357,0.9364,0.9362,0.9356,0.9356,0.9345,0.9357,0.9349,0.9348,0.935,0.9325,0.932,0.9302,0.9333,0.9333,0.9333,0,0.9377,0.9373,0.9357,0.9357,0.9355,0.9347,0.9343,0.9337,0.9335,0.9336,0.9333,0.9337,0.9328,0.9338,0.9325,0.9333,0.933,0.933,0.9329,0.9329,0.934,0.9324,0.9296,0.9294,0.9329,0.9329,0.9329,0,0.9356,0.9347,0.9336,0.9335,0.9334,0.9329,0.9329,0.9327,0.9324,0.932,0.9318,0.9313,0.931,0.9306,0.9309,0.9315,0.9296,0.9306,0.9297,0.9297,0.9292,0.9293,0.9264,0.929,0.929,0.929,0.929,0,0.9331,0.9321,0.9327,0.9321,0.931,0.9315,0.9304,0.9305,0.9303,0.9297,0.9304,0.9298,0.9302,0.9296,0.9298,0.9288,0.9287,0.9287,0.9288,0.9287,0.9287,0.9285,0.9287,0.9289,0.9289,0.9289,0.929,0,0.9306,0.9309,0.9299,0.93,0.93,0.9292,0.9293,0.9287,0.9288,0.9281,0.9279,0.9281,0.9275,0.9278,0.9271,0.9273,0.926,0.9262,0.9261,0.9262,0.9253,0.9254,0.9223,0.9219,0.9247,0.9246,0.9246,0,0.929,0.9283,0.9283,0.928,0.928,0.9274,0.9271,0.9276,0.9273,0.9271,0.9265,0.926,0.9256,0.9246,0.9247,0.9242,0.9244,0.9234,0.9244,0.9243,0.9245,0.9246,0.9245,0.9232,0.9231,0.9231,0.9231,0,0.9262,0.9264,0.926,0.9257,0.9253,0.9251,0.9249,0.9246,0.9251,0.9247,0.9241,0.9238,0.9232,0.9227,0.9223,0.9223,0.9228,0.9228,0.9226,0.9225,0.9225,0.9225,0.9256,0.9229,0.9229,0.9229,0.9229,0.9229,0.9241,0.9235,0.9235,0.9231,0.923,0.9229,0.9224,0.9225,0.9221,0.9217,0.922,0.9214,0.9213,0.9208,0.9207,0.9202,0.9206,0.9203,0.9202,0.9201,0.9201,0.9225,0.9201,0.9201,0.9201,0.9202,0.9202,0,0.9214,0.9214,0.921,0.9208,0.9205,0.9211,0.9209,0.9206,0.92,0.9199,0.9196,0.919,0.9185,0.9187,0.9183,0.9179,0.9181,0.9177,0.9178,0.9178,0.9197,0.9199,0.9176,0.9176,0.9176,0.9176,0.9176,0.9176,0.9199,0.919,0.9193,0.9184,0.9185,0.918,0.9178,0.9177,0.9176,0.917,0.9166,0.9168,0.9168,0.9164,0.916,0.9161,0.9159,0.9155,0.9156,0.9174,0.9176,0.9179,0.9181,0.9154,0.9154,0.9138,0.9138,0.9138]}]]